Simultaneous Nadir Overpasses (SNOs) Predictions

Prediction of SNOs between METOP-C and LANDSAT-8 Satellite Orbit:

Table of predicted SNOs for the next 14.0 days since TLE Epoch: 4/9/2022
Index Date (METOP-C) Time (METOP-C) Lat,Lon (METOP-C) SZA (METOP-C ) Date (LANDSAT-8) Time (LANDSAT-8) Lat,Lon (LANDSAT-8) SZA (LANDSAT-8 ) Distance(km) Time Diff (sec)
1 04/10/2022 06:03:35 81.09, 127.76 75.06 04/10/2022 06:04:45 81.08, 127.61 75.07 2.45 70
2 04/10/2022 06:54:14 -81.10, -64.43 104.90 04/10/2022 06:54:11 -81.11, -64.42 104.90 0.31 3
3 04/13/2022 01:37:57 81.07,-166.26 74.00 04/13/2022 01:39:01 81.07,-166.17 74.03 1.62 64
4 04/13/2022 02:28:34 -81.12, 2.28 105.87 04/13/2022 02:28:26 -81.12, 2.19 105.88 1.60 8
5 04/15/2022 21:12:18 81.08, -99.58 73.04 04/15/2022 21:13:17 81.07, -99.71 73.05 2.41 59
6 04/15/2022 22:02:57 -81.10, 68.20 106.92 04/15/2022 22:02:43 -81.10, 68.31 106.91 1.90 14
7 04/18/2022 16:46:39 81.09, -32.95 72.10 04/18/2022 16:47:32 81.09, -33.01 72.12 1.09 53
8 04/18/2022 17:37:17 -81.12, 135.19 107.81 04/18/2022 17:36:58 -81.12, 135.02 107.84 2.86 19
9 04/21/2022 12:21:00 81.08, 33.27 71.13 04/21/2022 12:21:47 81.08, 33.21 71.14 1.13 47



Historial Predications of SNOs between METOP-C and LANDSAT-8
